This is the latest recevied weather packets stored in our database for station/object 2E0RGX-13. If no packets are shown the sender has not sent any weather packets the latest 10 day(s).
| Time | Temp. | Humidity | Pressure | Rain* | Wind** | Luminosity | Snow |
|---|---|---|---|---|---|---|---|
| 1777891444 | 13.33° C | 79% | 1011.4 hPa | 0 mm | - | 1 W/m² | - |
| 1777891141 | 13.89° C | 79% | 1011.3 hPa | 0 mm | - | 1 W/m² | - |
| 1777890836 | 13.89° C | 78% | 1011.5 hPa | 0 mm | - | 1 W/m² | - |
| 1777890532 | 13.89° C | 79% | 1011.5 hPa | 0 mm | - | 1 W/m² | - |
| 1777890228 | 13.33° C | 80% | 1011.2 hPa | 0 mm | - | 2 W/m² | - |
| 1777889924 | 13.33° C | 79% | 1011.1 hPa | 0 mm | - | 1 W/m² | - |
| 1777889620 | 13.33° C | 79% | 1011.5 hPa | 0 mm | - | 1 W/m² | - |
| 1777889316 | 13.33° C | 79% | 1011.1 hPa | 0 mm | - | 2 W/m² | - |
| 1777889012 | 13.33° C | 79% | 1011.2 hPa | 0 mm | - | 2 W/m² | - |
| 1777888708 | 13.33° C | 80% | 1011.1 hPa | 0 mm | - | 1 W/m² | - |
| 1777888404 | 13.33° C | 80% | 1011.3 hPa | 0 mm | - | 1 W/m² | - |
| 1777888101 | 13.33° C | 80% | 1011.1 hPa | 0 mm | - | 1 W/m² | - |
| 1777887796 | 12.78° C | 80% | 1011.3 hPa | 0 mm | - | 1 W/m² | - |
| 1777887492 | 13.33° C | 81% | 1011.1 hPa | 0 mm | - | 2 W/m² | - |
| 1777887188 | 12.78° C | 81% | 1011.2 hPa | 0 mm | - | 1 W/m² | - |
| 1777886884 | 12.78° C | 82% | 1011 hPa | 0 mm | - | 1 W/m² | - |
| 1777886580 | 12.78° C | 82% | 1011.3 hPa | 0 mm | - | 1 W/m² | - |
| 1777886276 | 12.22° C | 83% | 1011.1 hPa | 0 mm | - | 1 W/m² | - |
| 1777885972 | 12.22° C | 83% | 1011.2 hPa | 0 mm | - | 1 W/m² | - |
| 1777885668 | 12.22° C | 83% | 1011.3 hPa | 0 mm | - | 1 W/m² | - |
| 1777885364 | 12.22° C | 84% | 1011.3 hPa | 0 mm | - | 1 W/m² | - |
| 1777885060 | 12.22° C | 83% | 1011.3 hPa | 0 mm | - | 1 W/m² | - |
| 1777884756 | 12.22° C | 83% | 1011.1 hPa | 0 mm | - | 1 W/m² | - |
| 1777884453 | 12.22° C | 84% | 1011.3 hPa | 0 mm | - | 1 W/m² | - |
| 1777884149 | 12.22° C | 84% | 1011.3 hPa | 0 mm | - | 1 W/m² | - |
* Rain latest hour (hover to see other rain measurements)
** Current wind speed in m/s (hover to see current wind gust speed)